This is the latest recevied weather packets stored in our database for station/object 9W2CHF-4. If no packets are shown the sender has not sent any weather packets the latest 10 day(s).
| Time | Temp. | Humidity | Pressure | Rain* | Wind** | Luminosity | Snow |
|---|---|---|---|---|---|---|---|
| 1777829010 | 32.22° C | 80% | 1010.4 hPa | - | - | - | - |
| 1777828110 | 32.22° C | 82% | 1010.6 hPa | - | - | - | - |
| 1777827210 | 32.22° C | 82% | 1010.7 hPa | - | - | - | - |
| 1777826310 | 32.22° C | 82% | 1010.7 hPa | - | - | - | - |
| 1777825410 | 32.78° C | 81% | 1010.7 hPa | - | - | - | - |
| 1777824510 | 32.78° C | 80% | 1010.8 hPa | - | - | - | - |
| 1777823610 | 32.78° C | 81% | 1010.9 hPa | - | - | - | - |
| 1777822709 | 32.22° C | 81% | 1010.9 hPa | - | - | - | - |
| 1777821809 | 32.22° C | 84% | 1011 hPa | - | - | - | - |
| 1777820909 | 32.78° C | 78% | 1010.8 hPa | - | - | - | - |
| 1777820009 | 32.78° C | 77% | 1010.7 hPa | - | - | - | - |
| 1777819109 | 32.78° C | 79% | 1010.6 hPa | - | - | - | - |
| 1777818209 | 32.78° C | 77% | 1010.4 hPa | - | - | - | - |
| 1777817308 | 33.33° C | 77% | 1010 hPa | - | - | - | - |
| 1777816408 | 33.33° C | 76% | 1009.9 hPa | - | - | - | - |
| 1777815508 | 32.78° C | 78% | 1009.9 hPa | - | - | - | - |
| 1777814607 | 32.78° C | 79% | 1009.9 hPa | - | - | - | - |
| 1777813707 | 33.33° C | 77% | 1010 hPa | - | - | - | - |
| 1777812807 | 33.33° C | 76% | 1010 hPa | - | - | - | - |
| 1777811907 | 33.33° C | 77% | 1009.9 hPa | - | - | - | - |
| 1777811007 | 33.33° C | 77% | 1010 hPa | - | - | - | - |
| 1777810107 | 33.33° C | 76% | 1009.7 hPa | - | - | - | - |
| 1777809207 | 33.33° C | 77% | 1009.4 hPa | - | - | - | - |
| 1777808307 | 33.33° C | 76% | 1009.3 hPa | - | - | - | - |
| 1777807407 | 32.78° C | 77% | 1008.9 hPa | - | - | - | - |
* Rain since midnight (hover to see other rain measurements)
** Current wind speed in m/s (hover to see current wind gust speed)